sat.trackr.live / text

‹ back to catalog

STARLINK-5309

NORAD 55310 · 2023-010AT

PAYLOAD ACTIVE UNKNOWN

§ Identity

Operator
Country
US
Launch date
2023-01-19
Launch site
AFWTR
Launch vehicle
Mass (kg)
RCS (m²)

Purposes: comms

External: N2YO · Heavens-Above · Gunter

§ Orbital elements

Epoch: 2026-09-20T22:00:03.000096Z

Period
95.54 min
Inclination
70.0003°
Eccentricity
0.0001870
Mean motion
15.07298924 rev/d
Perigee alt
543.2 km
Apogee alt
545.8 km
Semi-major
6,922.6 km
B*
3.6052e-3
RAAN
232.1930°
Arg perigee
221.3628°
Mean anomaly
227.6399°
Rev number
576

§ Raw data

STARLINK-53091 55310U 23010AT  26263.91670139  .00054855  00000+0  36052-2 0  99992 55310  70.0003 232.1930 0001870 221.3628 227.6399 15.07298924  5769

JSON: /api/v1/satellites/55310 · /tle

For live sub-satellite position, see the globe view (requires WebGL).

§ Visibility from observer

Set your observer location to see the next 7 days of passes ≥ 10°. The values pass through the URL so the page stays shareable.

No JS? Fill the form by hand. The geolocation button needs JavaScript.